SCP
0 0 0 0 0 0 0 0 0 0 0 0 0 0 0 0 0 0 0 0 0 0 0 0 0 0 0 0 0 0 0 0 0 0 0 0 0 0 0 0 0 0 0 0 0 0 0 0 0
0 0 0 0 0 0 0 0 0 0 0 0 0 0 0 0 0 0 0 0 0 0 0 0 0 0 0 0 0 0 0 0 0 0 0 0 0 0 0 0 0 0 0 0 0 0 0 0 0
0 0 0 0 0 0 0 0 0 0 0 0 0 0 0 0 0 0 0 0 0 0 0 0 0 0 0 0 0 0 0 0 0 0 0 0 0 0 0 0 0 0 0 0 0 0 0 0 0
0 0 0 0 0 0 0 0 0 0 0 0 0 0 0 0 0 0 0 0 0 0 0 0 0 0 0 0 0 0 0 0 0 0 0 0 0 0 0 0 0 0 0 0 0 0 0 0 0
0 0 0 0 0 0 0 0 0 0 0 0 0 0 0 0 0 0 0 0 0 0 0 0 0 0 0 0 0 0 0 0 0 0 0 0 0 0 0 0 0 0 0 0 0 0 0 0 0
0 0 0 0 0 0 0 0 0 0 0 0 0 0 0 0 0 0 0 0 0 0 0 0 0 0 0 0 0 0 0 0 0 0 0 0 0 0 0 0 0 0 0 0 0 0 0 0 0
0 0 0 0 0 0 0 0 0 0 0 0 0 0 0 0 0 0 0 0 0 0 0 0 0 0 0 0 0 0 0 0 0 0 0 0 0 0 0 0 0 0 0 0 0 0 0 0 0
0 0 0 0 0 0 0 0 0 0 0 0 0 0 0 0 0 0 0 0 0 0 0 0 0 0 0 0 0 0 0 0 0 0 0 0 0 0 0 0 0 0 0 0 0 0 0 0 0
0 0 0 0 0 0 0 0 0 0 0 0 0 0 0 0 0 0 0 0 0 0 0 0 0 0 0 0 0 0 0 0 0 0 0 0 0 0 0 0 0 0 0 0 0 0 0 0 0
0 0 0 0 0 0 0 0 0 0 0 0 0 0 0 0 0 0 0 0 0 0 0 0 0 0 0 0 0 0 0 0 0 0 0 0 0 0 0 0 0 0 0 0 0 0 0 0 0
0 0 0 0 0 0 0 0 0 0 0 0 0 0 0 0 0 0 0 0 0 0 0 0 0 0 0 0 0 0 0 0 0 0 0 0 0 0 0 0 0 0 0 0 0 0 0 0 0
0 0 0 0 0 0 0 0 0 0 0 0 0 0 0 0 0 0 0 0 0 0 0 0 0 0 0 0 0 0 0 0 0 0 0 0 0 0 0 0 0 0 0 0 0 0 0 0 0
0 0 0 0 0 0 0 0 0 0 0 0 0 0 0 0 0 0 0 0 0 0 0 0 0 0 0 0 0 0 0 0 0 0 0 0 0 -0 0 0 0 0 0 0 0 0 0 0 0
0 0 0 0 0 0 0 0 0 0 0 0 0 0 0 0 0 0 0 0 0 0 0 0 0 0 0 0 0 0 0 0 0 0 0 0 0 0 0 0 0 0 -0 -0 0 0 0 0 0
0 0 0 0 0 0 0 0 0 0 0 0 0 0 0 0 0 0 0 0 0 0 0 0 0 0 0 0 0 0 0 0 0 0 0 0 0 0 0 0 0 0 0 0 0 0 0 0 0
0 0 0 0 0 0 0 0 0 0 0 0 0 0 0 0 0 0 0 0 0 0 0 0 0 0 0 0 0 0 0 0 0 0 0 0 0 0 0 0 0 0 0 0 0 0 0 0 0
0 0 0 0 0 0 0 0 0 0 0 0 0 0 0 0 0 0 0 0 0 0 0 0 0 0 0 0 0 0 0 0 0 0 0 0 0 0 0 0 0 0 0 0 0 0 0 0 0
0 0 0 0 0 0 0 0 0 0 0 0 0 0 0 0 0 0 0 0 0 0 0 0 0 0 0 0 0 0 0 0 0 0 0 0 0 0 0 0 0 0 0 0 0 0 0 0 0
0 0 0 0 0 0 0 0 0 0 0 0 0 0 0 0 0 0 0 0 0 0 0 0 0 0 0 0 0 0 0 0 0 0 0 0 0 0 0 0 0 0 0 0 0 0 0 0 0
0 0 0 0 0 0 0 0 0 0 0 0 0 0 0 0 0 0 0 0 0 0 0 0 0 0 0 0 0 0 0 0 0 0 0 0 0 0 0 0 0 0 0 0 0 0 0 0 0
0 0 0 0 0 0 0 0 0 0 0 0 0 0 0 0 0 0 0 0 0 0 0 0 0 0 0 0 0 0 0 0 0 0 0 0 0 0 0 0 0 0 0 0 0 0 0 0 0
0 0 0 0 0 0 0 0 0 0 0 0 0 0 0 0 0 0 0 0 0 0 0 0 0 0 0 0 0 0 0 0 0 0 0 0 0 0 0 0 0 0 0 0 0 0 0 0 0
0 0 0 0 0 0 0 0 0 0 0 0 0 0 0 0 0 0 0 0 0 0 0 0 0 0 0 0 0 0 0 0 0 0 0 0 0 0 0 0 0 0 0 0 0 0 0 0 0
0 0 0 0 0 0 0 0 0 0 0 0 0 0 0 0 0 0 0 0 0 0 0 0 0 0 0 0 0 0 0 0 0 0 0 0 0 0 0 0 0 0 0 0 0 0 0 0 0
0 0 0 0 0 0 0 0 0 0 0 0 0 0 0 0 0 0 0 0 0 0 0 0 0 0 0 0 0 0 0 0 0 0 0 0 0 0 0 0 -0 0 0 0 0 0 0 0 0
0 0 0 0 0 0 0 0 0 0 0 0 0 0 0 0 0 0 0 0 0 0 0 0 0 0 0 0 0 0 0 0 0 0 0 0 0 0 0 0 0 0 0 0 0 0 0 0 0
0 0 0 0 0 0 0 0 0 0 0 0 0 0 0 0 0 0 0 0 0 0 0 0 0 0 0 0 0 0 0 0 0 0 0 0 0 0 0 0 0 0 0 0 0 0 0 0 0
0 0 0 0 0 0 0 0 0 0 0 0 0 0 0 0 0 0 0 0 0 0 0 0 0 0 0 0 0 0 0 0 0 0 0 0 0 0 0 0 0 0 0 0 0 0 0 0 0
0 0 0 0 0 0 0 0 0 0 0 0 0 0 0 0 0 0 0 0 0 0 0 0 0 0 0 0 0 0 0 0 0 0 0 0 0 0 0 0 0 0 0 0 0 0 0 0 0
0 0 0 0 0 0 0 0 0 0 0 0 0 0 0 0 0 0 0 0 0 0 0 0 0 0 0 0 0 0 0 0 0 0 0 0 0 0 0 0 0 0 0 0 0 0 0 -0 0
Wind_Speed
5 3 2 3 6 6 3 1 1 2 3 4 7 9 8 6 4 4 2 5 6 4 2 4 7 7 7 8 8 8 9 9 9 10 10 10 10 10 10 9 10 10 10 10 10 10 10 9 9
2 1 3 5 6 4 2 1 3 3 4 4 7 7 7 6 4 5 3 5 6 5 3 4 7 7 7 8 8 8 9 9 10 10 10 10 10 10 9 9 9 10 10 9 9 9 9 9 8
2 1 4 5 4 3 2 1 3 4 4 4 5 6 5 3 3 3 4 6 6 4 3 4 7 7 7 7 8 8 8 9 9 10 10 9 9 9 9 9 9 9 8 8 8 8 8 8 8
2 4 5 6 5 2 3 2 3 4 5 5 6 6 4 3 2 4 5 7 7 4 3 4 7 6 6 7 7 7 8 8 9 10 9 9 9 9 9 9 9 8 8 8 7 7 7 8 8
3 4 6 4 3 2 2 3 4 5 4 4 6 6 3 3 5 7 6 7 6 4 2 3 6 6 6 6 6 7 7 8 9 9 9 9 9 9 8 9 8 8 8 8 7 7 7 8 8
4 5 5 3 2 2 2 4 6 7 6 5 6 5 2 2 5 5 6 6 5 4 3 3 6 6 5 6 6 7 7 8 8 8 8 8 8 8 8 8 7 7 7 6 7 7 7 8 8
4 4 3 3 2 2 2 3 5 5 5 3 4 5 2 1 2 4 5 5 4 4 3 2 2 3 5 6 6 7 7 7 7 7 7 7 8 8 7 7 7 6 6 6 6 6 7 8 8
5 5 3 2 2 1 1 3 4 5 4 3 4 6 4 3 3 4 4 4 3 3 3 2 1 1 1 2 5 6 6 6 6 6 7 7 7 7 6 5 6 6 6 6 6 6 7 7 9
4 6 2 1 2 1 2 4 4 4 5 4 3 3 5 7 6 5 4 3 2 2 1 2 1 1 1 1 3 4 4 4 5 4 6 5 3 2 3 4 5 5 5 5 6 6 8 8 9
5 4 1 2 3 3 3 4 4 4 5 4 5 5 7 7 6 5 4 3 2 2 1 2 2 2 1 2 2 1 2 2 2 2 2 2 1 1 2 3 4 5 5 5 5 6 7 6 4
4 4 2 2 3 4 4 4 3 6 3 3 6 7 7 6 5 5 4 3 2 2 2 3 3 2 2 2 2 1 1 1 2 2 2 2 2 1 2 1 2 3 4 3 4 4 3 3 3
4 2 3 2 3 3 3 3 4 3 3 6 8 9 7 7 6 5 5 3 2 2 2 3 3 2 2 2 2 2 1 1 1 1 2 2 1 1 1 1 1 1 2 2 3 3 4 5 5
3 2 2 4 4 3 5 5 4 2 5 7 8 8 7 6 5 4 4 3 3 3 3 3 3 3 3 2 1 2 1 2 2 1 2 3 2 1 1 1 1 1 2 2 3 3 4 5 5
3 2 2 2 3 2 5 3 4 3 6 8 8 7 6 5 5 4 4 4 3 3 3 3 4 3 4 3 2 2 2 1 2 2 2 2 2 2 2 2 2 2 2 3 3 4 4 3 4
2 3 1 1 2 2 4 3 2 6 7 7 7 6 5 4 4 5 5 5 4 3 3 4 4 4 4 4 3 2 2 2 2 2 2 2 3 3 2 3 3 2 3 4 4 4 3 4 4
2 2 0 3 2 3 6 1 3 6 8 7 6 5 5 4 4 4 5 5 4 4 4 3 4 4 4 3 3 2 2 2 2 2 2 3 3 3 3 3 2 3 3 3 3 3 4 4 3
2 1 2 2 2 3 4 3 3 6 8 7 6 5 5 4 3 3 4 5 5 5 4 3 4 4 4 4 3 3 3 2 2 2 2 2 3 4 4 3 2 3 3 3 3 3 3 3 3
2 1 2 3 2 2 3 3 3 5 7 7 6 5 5 5 5 4 5 4 4 4 4 4 3 3 4 3 3 3 3 2 2 2 2 3 3 4 4 3 3 3 3 3 3 3 3 3 3
2 1 1 3 3 3 3 3 4 5 5 6 6 6 6 7 5 4 4 4 4 4 4 3 3 3 3 2 2 2 1 1 1 1 2 3 3 3 4 3 3 3 3 3 3 3 4 2 2
1 1 0 1 1 2 2 2 4 5 7 8 9 8 8 6 4 4 4 4 5 4 4 4 3 3 3 2 2 1 1 1 0 1 2 2 3 3 4 3 3 3 3 3 3 3 2 1 1
1 3 3 2 1 1 2 3 2 3 3 5 7 7 8 9 9 7 5 5 6 5 5 5 4 4 3 3 2 2 2 2 2 2 1 1 2 3 3 4 3 3 3 3 2 2 3 2 1
2 3 3 3 3 2 2 1 5 3 2 4 6 6 7 8 8 7 7 6 7 6 4 5 4 4 4 4 4 3 2 2 1 1 0 1 2 2 2 3 3 3 3 3 2 2 2 3 1
3 2 1 2 2 1 0 2 6 1 3 5 6 7 8 8 9 9 8 8 6 5 5 5 4 4 4 4 4 4 2 1 1 1 2 1 1 1 2 3 3 4 3 2 2 2 2 2 2
2 3 4 4 4 1 3 3 4 4 6 5 5 6 6 7 7 7 6 6 5 5 4 5 5 4 4 4 4 4 4 3 2 1 1 1 1 1 2 3 3 3 3 3 2 2 3 2 2
4 5 3 4 3 4 2 3 5 5 4 6 8 7 6 7 7 7 7 6 6 6 6 5 5 4 4 4 4 4 5 4 4 3 2 2 1 0 1 2 2 2 2 3 3 3 2 2 2
2 6 5 3 3 3 1 2 4 3 1 3 5 6 6 6 6 7 8 8 7 7 6 5 5 4 4 4 4 3 4 3 2 3 3 3 2 2 2 2 2 2 3 3 3 2 2 2 2
3 2 5 5 1 0 2 1 3 4 4 3 4 4 5 6 6 7 7 7 6 6 6 6 6 5 4 4 4 3 3 3 3 3 3 2 2 2 3 3 3 3 3 3 3 2 2 3 2
4 4 4 3 2 1 2 1 3 2 1 2 3 4 5 5 5 5 6 6 6 6 5 5 5 5 5 5 4 4 3 3 3 3 3 3 3 2 3 3 3 3 3 3 3 2 2 3 2
2 2 3 3 4 4 1 4 4 6 5 5 4 5 6 6 6 6 5 5 5 5 4 4 4 4 4 4 4 3 3 3 3 3 3 3 3 3 4 4 3 3 3 3 3 2 2 2 2
4 4 5 4 2 2 3 5 3 4 4 4 4 4 5 6 6 5 5 4 4 4 4 5 4 4 4 4 4 3 3 3 3 2 2 3 3 3 4 4 3 3 3 3 4 3 2 2 2
Wind_Direction
313 327 76 56 54 57 67 22 83 62 50 45 65 79 82 64 78 122 166 133 132 131 123 113 102 96 93 90 85 82 85 87 87 91 92 92 89 87 89 89 86 85 86 88 86 86 86 85 83
327 350 65 55 72 70 48 20 64 70 128 118 77 76 77 72 80 107 125 139 134 131 123 114 105 98 94 91 90 89 88 90 92 94 93 91 89 87 89 91 90 87 86 87 86 84 83 82 80
321 29 74 64 71 106 120 145 110 74 87 84 73 58 67 85 96 123 154 143 130 124 119 121 110 100 94 94 93 95 93 93 96 97 95 93 91 91 90 90 89 88 90 90 89 86 83 81 79
54 46 56 71 77 85 137 153 120 94 66 56 88 70 59 48 108 134 139 133 128 128 128 124 112 108 102 100 101 101 99 97 98 98 96 96 94 93 92 92 91 91 95 95 94 89 85 83 81
68 70 62 67 70 60 83 104 95 79 72 65 85 91 62 30 98 121 126 125 131 135 138 130 118 112 108 110 113 108 105 103 101 100 99 99 97 94 93 91 91 93 94 94 93 93 85 80 80
56 66 79 81 78 78 72 89 92 89 98 92 86 98 95 106 112 125 125 129 138 142 139 127 124 117 108 113 115 111 110 112 108 103 100 101 101 100 96 95 92 93 96 97 94 92 86 80 78
93 83 100 118 101 77 87 98 96 100 93 99 107 100 122 139 135 127 118 123 133 137 136 130 126 117 114 116 119 115 113 117 116 110 106 104 102 102 100 98 100 100 100 97 93 91 87 83 81
118 94 72 74 96 74 41 84 101 100 95 90 94 123 164 187 151 118 107 105 120 129 139 144 155 128 108 107 121 122 119 121 119 115 113 106 100 100 100 104 106 109 105 99 95 92 88 84 84
82 76 81 125 133 130 93 88 70 72 83 58 59 123 151 142 125 109 98 80 99 122 132 138 151 153 147 133 123 119 114 109 109 112 113 101 75 76 82 105 112 109 103 100 93 87 87 82 81
79 97 151 164 144 136 112 107 114 85 73 65 64 82 115 127 125 129 138 142 138 156 148 128 135 142 146 127 90 76 83 80 78 90 97 90 79 80 91 88 102 95 84 83 85 84 82 71 64
105 142 150 103 121 115 102 91 90 115 103 149 142 137 129 129 136 145 156 163 169 168 135 123 132 121 109 93 96 74 74 80 71 79 98 100 84 67 62 47 45 47 57 51 60 64 68 75 77
100 124 137 119 114 108 112 106 83 100 158 156 147 143 139 145 159 166 166 172 159 120 109 127 130 110 101 100 100 105 99 86 76 83 92 95 94 89 85 60 34 43 55 70 66 72 76 78 82
99 145 113 119 107 108 102 105 111 102 131 135 135 135 146 152 157 168 164 162 137 122 110 113 115 109 99 90 84 95 94 93 90 79 92 100 104 104 89 81 67 63 76 91 89 85 83 83 84
163 128 105 127 129 121 115 112 109 156 145 137 143 152 160 163 160 161 161 152 145 128 116 117 107 107 100 93 86 87 89 91 85 78 77 91 102 102 95 87 77 73 80 83 87 88 87 85 87
131 94 24 258 172 162 110 56 162 169 149 147 155 162 162 169 166 167 172 161 156 148 127 121 119 104 99 99 92 81 74 77 73 67 76 86 89 97 97 90 83 83 90 89 82 80 80 86 84
80 83 311 275 172 161 115 191 232 168 152 159 166 169 166 180 180 176 163 156 152 142 134 130 122 113 103 99 95 84 72 71 65 63 72 83 88 91 88 86 81 83 83 84 87 81 80 78 83
36 150 203 266 213 163 138 198 217 177 165 172 177 179 175 180 187 181 159 156 156 150 144 136 123 119 109 101 90 81 76 64 54 60 67 79 89 95 99 95 87 87 82 79 95 83 91 92 89
225 200 199 201 217 145 155 201 202 187 173 180 182 181 182 187 201 186 169 159 155 150 145 138 127 123 110 93 78 64 55 48 44 57 67 81 85 92 101 105 95 90 87 77 83 89 77 89 94
198 191 232 218 195 159 186 201 209 200 181 181 185 184 186 194 200 178 168 152 143 140 141 143 131 130 116 100 96 94 78 38 38 45 75 86 90 90 96 103 98 95 97 102 105 99 82 67 80
175 165 263 278 217 154 194 238 222 201 192 183 184 187 186 185 176 173 170 154 153 153 150 144 145 142 135 127 132 142 140 109 55 29 56 82 94 96 109 109 109 107 102 95 95 100 94 73 82
222 183 190 192 22 27 90 338 275 244 202 184 188 185 182 181 179 178 171 163 155 159 166 162 163 154 145 127 102 79 60 46 34 27 20 24 90 104 109 111 116 118 116 124 127 129 126 123 43
240 239 186 156 115 262 152 249 278 246 229 203 196 188 188 187 178 175 171 166 168 171 167 157 158 151 145 132 127 127 126 132 190 199 76 27 72 99 105 110 115 119 121 132 143 134 131 124 113
210 243 176 153 140 334 360 146 283 249 225 221 203 194 191 186 178 175 176 174 172 167 164 158 152 150 151 144 139 134 134 156 153 110 84 58 40 78 107 109 110 113 123 134 121 110 108 117 130
161 51 33 49 70 310 234 159 276 232 214 204 195 189 184 179 174 173 172 163 164 162 158 156 154 156 157 153 149 153 159 159 137 120 117 74 40 45 87 113 117 121 129 132 123 112 108 105 108
83 82 39 14 13 260 230 146 254 251 208 182 181 180 174 172 168 167 168 170 169 166 167 166 160 164 169 166 170 174 175 172 171 175 171 162 134 127 157 127 125 123 131 125 118 108 99 106 110
170 139 153 181 214 273 334 194 263 289 183 159 157 160 160 168 173 176 176 174 173 172 171 172 172 174 176 174 182 182 176 175 184 186 178 179 182 191 177 146 136 126 123 114 109 105 100 101 103
148 179 169 142 190 248 288 312 335 13 56 91 129 141 165 174 176 176 177 175 173 171 176 179 176 174 178 175 180 185 180 178 187 190 181 183 191 187 165 145 138 127 119 112 111 98 97 102 100
159 149 94 114 150 234 296 239 233 234 193 164 161 171 180 176 171 172 172 175 177 177 177 175 173 173 176 173 185 187 186 183 179 169 174 181 181 161 145 146 149 140 130 122 112 106 107 101 97
137 120 121 135 155 154 220 268 236 199 193 186 191 184 175 172 170 173 175 173 170 167 167 173 178 168 171 179 183 174 176 175 165 167 180 178 166 162 162 163 159 153 149 140 125 121 119 113 90
161 169 148 151 218 162 164 263 279 194 187 173 175 173 170 168 165 165 162 156 158 164 171 180 182 177 180 175 165 162 161 158 159 167 176 165 159 168 168 161 159 159 155 153 150 153 147 144 138